Weather Roundup
Issued by NWS

Home | Current Version | Previous Version | Graphics & Text | Print | Product List | Glossary Off
Versions: 1 2 3 4 5 6 7 8 9 10 11 12 13 14 15 16 17 18 19 20 21 22 23 24 25 26 27 28 29 30 31 32 33 34 35 36 37 38 39 40 41 42 43 44 45 46 47 48 49 50

000
NZUS93 KARX 270059
HRRWXR

CURRENT HOURLY OBSERVATIONS ACROSS
MUCH OF THE UPPER MISSISSIPPI VALLEY
NATIONAL WEATHER SERVICE LA CROSSE WI
800 PM CDT SUN MAR 26 2017


...SOUTHEAST MINNESOTA...


CITY           SKY/WX    TMP DP  RH WIND       PRES   REMARKS
ROCHESTER      CLOUDY    39  39 100 N5        29.90R
ROCHESTER/MAYO CLOUDY    40  40  99 CALM      29.91R
WINONA         CLOUDY    41  37  87 NW5       29.92S
AUSTIN         CLOUDY    39  37  93 N3        29.90S
ALBERT LEA     CLOUDY    39  39 100 N8        29.90S FOG     WCI  34
DODGE CENTER   CLOUDY    39  37  93 NW6       29.91R FOG     WCI  35
PRESTON        CLOUDY    38  37  94 N6        29.91R FOG     WCI  34
OWATONNA       CLOUDY    41  37  87 NW5       29.91S FOG
FARIBAULT      CLOUDY    41  39  93 N3        29.92F
$$

...ELSEWHERE IN MINNESOTA...


CITY           SKY/WX    TMP DP  RH WIND       PRES   REMARKS
MINNEAPOLIS    CLOUDY    41  36  82 N7        29.93S
INTNL FALLS    CLOUDY    39  31  72 CALM      29.93R
DULUTH         FOG       33  33 100 CALM      29.93R VSB 1/8
RED WING       CLOUDY    43  39  87 NW3       29.92R FOG
REDWOOD FALLS  CLOUDY    44  37  76 CALM      29.93S
MANKATO        CLOUDY    39  38  96 N12       29.92S WCI  32
WORTHINGTON    CLOUDY    40  37  89 N10       29.92S WCI  33
FAIRMONT       CLOUDY    41  38  89 N5        29.92S
$$

...SOUTHWEST WISCONSIN...


CITY           SKY/WX    TMP DP  RH WIND       PRES   REMARKS
LA CROSSE      CLOUDY    43  40  89 CALM      29.91R FOG
PRAIRIE DU CHI CLOUDY    43  41  91 NW3       29.89R
BOSCOBEL       CLOUDY    45  42  89 N3        29.89R
LONE ROCK      NOT AVBL
PLATTEVILLE    CLOUDY    45  45 100 NW3       29.87S
FORT MC COY    CLOUDY    40  39  97 W3        29.90S
MAUSTON-NEW LI CLOUDY    40  39  99 NW5       29.88R FOG
VIROQUA        CLOUDY    40  40 100 NW8       29.87S WCI  35
WIS DELLS      DRIZZLE   40  39  96 CALM      29.87S
$$

...ELSEWHERE IN WISCONSIN...


CITY           SKY/WX    TMP DP  RH WIND       PRES   REMARKS
MILWAUKEE      CLOUDY    42  39  89 N5        29.85S
MADISON        CLOUDY    42  40  92 N7        29.86S
GREEN BAY      LGT RAIN  37  37 100 NE6       29.88R FOG     WCI  32
EAU CLAIRE     NOT AVBL
BLACK RVR FLS  CLOUDY    41  41 100 CALM      29.89R
MEDFORD        CLOUDY    38  38  97 N3        29.87R
WAUSAU         RAIN      39  39 100 NW3       29.86S FOG
WIS RAPIDS     LGT RAIN  39  39 100 NW3       29.90R FOG
MARSHFIELD     LGT RAIN  38  37  97 NW5       29.87R FOG     WCI  34
RICE LAKE      CLOUDY    40  38  90 CALM      29.92R
$$

...NORTHEAST IOWA...


CITY           SKY/WX    TMP DP  RH WIND       PRES   REMARKS
WATERLOO       CLOUDY    44  41  89 N9        29.89S
DUBUQUE        CLOUDY    45  44  97 W7        29.88R
DECORAH        CLOUDY    43  41  93 N9        29.89R
MASON CITY     CLOUDY    42  40  92 N8        29.91S
CHARLES CITY   CLOUDY    43  43 100 N8        29.90S
OELWEIN        CLOUDY    45  45 100 N8        29.89S
$$

...ELSEWHERE IN IOWA...


CITY           SKY/WX    TMP DP  RH WIND       PRES   REMARKS
DES MOINES     CLOUDY    47  43  86 NW6       29.92R
IOWA CITY      CLOUDY    50  45  83 NW3       29.91S
FORT DODGE     CLOUDY    43  37  81 N5        29.92R
MARSHALLTOWN   CLOUDY    46  45  96 N6        29.90R
CEDAR RAPIDS   CLOUDY    46  46 100 W5        29.89R
$$

...NORTHERN ILLINOIS...


CITY           SKY/WX    TMP DP  RH WIND       PRES   REMARKS
CHICAGO-OHARE  DRIZZLE   56  51  84 SW8       29.85R
CHICAGO-MIDWAY CLOUDY    55  52  89 SW9       29.86R
MOLINE         CLOUDY    51  46  83 W13       29.89R
ROCKFORD       CLOUDY    54  52  93 SW8       29.87S FOG
PEORIA         CLOUDY    51  47  86 W7        29.92R
$$

NOTE: "FAIR" INDICATES FEW OR NO CLOUDS BELOW 12,000 FEET WITH NO
SIGNIFICANT WEATHER AND/OR OBSTRUCTIONS TO VISIBILITY. WIND
SPEEDS ARE IN MILES-PER-HOUR.




USA.gov is the U.S. government's official web portal to all federal, state and local government web resources and services.